QPF
0.00 0.00 0.00 0.00 0.00 0.00 0.00 0.00 0.00 0.00 0.00 0.00 0.00 0.00 0.00 0.00 0.00 0.00 0.00 0.00 0.00 0.00 0.01 0.01 0.01 0.01 0.01 0.00 0.00 0.00 0.00 0.00 0.00 0.00 0.00 0.00 0.00 0.00 0.00 0.00 0.00 0.00 0.00 0.00
0.00 0.00 0.00 0.00 0.00 0.00 0.00 0.00 0.00 0.00 0.00 0.00 0.00 0.00 0.00 0.00 0.00 0.00 0.00 0.00 0.01 0.02 0.02 0.03 0.04 0.04 0.04 0.03 0.02 0.01 0.00 0.00 0.00 0.01 0.01 0.00 0.00 0.00 0.00 0.00 0.00 0.00 0.00 0.00
0.00 0.00 0.00 0.00 0.00 0.00 0.00 0.00 0.00 0.00 0.00 0.00 0.00 0.00 0.00 0.00 0.00 0.00 0.00 0.00 0.00 0.02 0.03 0.06 0.08 0.10 0.12 0.10 0.08 0.04 0.01 0.00 0.00 0.00 0.01 0.00 0.00 0.00 0.00 0.00 0.00 0.00 0.00 0.00
0.00 0.00 0.00 0.00 0.00 0.00 0.00 0.00 0.00 0.00 0.00 0.00 0.00 0.00 0.00 0.00 0.00 0.00 0.00 0.00 0.00 0.00 0.02 0.07 0.09 0.13 0.16 0.14 0.11 0.06 0.03 0.02 0.01 0.01 0.00 0.00 0.00 0.00 0.00 0.00 0.00 0.00 0.00 0.00
0.00 0.00 0.00 0.00 0.00 0.00 0.00 0.00 0.00 0.00 0.00 0.00 0.00 0.00 0.00 0.00 0.00 0.00 0.00 0.00 0.00 0.00 0.01 0.04 0.07 0.13 0.16 0.15 0.11 0.08 0.05 0.04 0.03 0.02 0.01 0.01 0.00 0.00 0.00 0.00 0.00 0.00 0.00 0.00
0.00 0.00 0.00 0.00 0.00 0.00 0.00 0.00 0.00 0.00 0.00 0.00 0.00 0.00 0.00 0.00 0.00 0.00 0.00 0.00 0.00 0.00 0.01 0.02 0.03 0.07 0.11 0.14 0.12 0.09 0.07 0.06 0.05 0.02 0.01 0.01 0.00 0.00 0.00 0.00 0.00 0.00 0.00 0.00
0.00 0.00 0.00 0.00 0.00 0.00 0.00 0.00 0.00 0.00 0.00 0.00 0.00 0.00 0.00 0.00 0.00 0.00 0.00 0.00 0.00 0.00 0.01 0.01 0.01 0.03 0.05 0.10 0.12 0.11 0.09 0.06 0.04 0.02 0.01 0.00 0.00 0.00 0.00 0.00 0.00 0.00 0.00 0.00
0.00 0.00 0.00 0.00 0.00 0.00 0.00 0.00 0.00 0.00 0.00 0.00 0.00 0.00 0.00 0.00 0.00 0.00 0.00 0.00 0.00 0.01 0.01 0.01 0.02 0.04 0.05 0.07 0.09 0.09 0.07 0.04 0.02 0.01 0.01 0.00 0.00 0.00 0.00 0.00 0.00 0.00 0.00 0.00
0.00 0.00 0.00 0.00 0.00 0.00 0.00 0.00 0.00 0.00 0.00 0.00 0.00 0.00 0.00 0.00 0.00 0.00 0.00 0.00 0.01 0.01 0.01 0.01 0.02 0.03 0.04 0.06 0.07 0.06 0.04 0.02 0.01 0.01 0.00 0.00 0.00 0.00 0.00 0.00 0.00 0.00 0.00 0.00
0.00 0.00 0.00 0.00 0.00 0.00 0.00 0.00 0.00 0.00 0.00 0.00 0.00 0.00 0.00 0.00 0.00 0.00 0.00 0.01 0.01 0.01 0.01 0.01 0.01 0.02 0.03 0.04 0.03 0.02 0.02 0.01 0.01 0.00 0.00 0.00 0.00 0.00 0.00 0.00 0.00 0.00 0.00 0.00
0.00 0.00 0.00 0.00 0.00 0.00 0.00 0.00 0.00 0.00 0.00 0.00 0.00 0.00 0.00 0.00 0.00 0.00 0.00 0.00 0.01 0.01 0.01 0.01 0.01 0.02 0.03 0.02 0.02 0.02 0.02 0.01 0.01 0.00 0.00 0.00 0.00 0.00 0.00 0.00 0.00 0.00 0.00 0.00
0.00 0.00 0.00 0.00 0.00 0.00 0.00 0.00 0.00 0.00 0.00 0.00 0.00 0.00 0.00 0.00 0.00 0.00 0.00 0.00 0.00 0.00 0.00 0.01 0.01 0.02 0.03 0.03 0.03 0.03 0.03 0.02 0.01 0.00 0.00 0.00 0.00 0.00 0.00 0.00 0.00 0.00 0.00 0.00
0.00 0.00 0.00 0.00 0.00 0.00 0.00 0.00 0.00 0.00 0.00 0.00 0.00 0.00 0.00 0.00 0.00 0.00 0.00 0.00 0.00 0.00 0.01 0.01 0.02 0.03 0.04 0.05 0.06 0.05 0.03 0.02 0.01 0.00 0.00 0.00 0.00 0.00 0.00 0.00 0.00 0.00 0.00 0.00
0.00 0.00 0.00 0.00 0.00 0.00 0.00 0.00 0.00 0.00 0.00 0.00 0.00 0.00 0.00 0.00 0.00 0.00 0.00 0.00 0.00 0.00 0.01 0.02 0.03 0.05 0.06 0.07 0.06 0.04 0.02 0.01 0.00 0.00 0.00 0.00 0.00 0.00 0.00 0.00 0.00 0.00 0.00 0.00
0.00 0.00 0.00 0.00 0.00 0.00 0.00 0.00 0.00 0.00 0.00 0.00 0.00 0.00 0.00 0.00 0.00 0.00 0.00 0.00 0.00 0.01 0.02 0.04 0.06 0.06 0.07 0.07 0.05 0.02 0.01 0.00 0.00 0.00 0.00 0.00 0.00 0.00 0.00 0.00 0.00 0.00 0.00 0.00
0.00 0.00 0.00 0.00 0.00 0.00 0.00 0.00 0.00 0.00 0.00 0.00 0.00 0.00 0.00 0.00 0.00 0.00 0.00 0.00 0.01 0.03 0.05 0.06 0.07 0.09 0.08 0.06 0.04 0.02 0.01 0.00 0.00 0.00 0.00 0.00 0.00 0.00 0.00 0.00 0.00 0.00 0.00 0.00
0.00 0.00 0.00 0.00 0.00 0.00 0.00 0.00 0.00 0.00 0.00 0.00 0.00 0.00 0.00 0.00 0.00 0.00 0.01 0.01 0.04 0.05 0.06 0.09 0.12 0.13 0.12 0.10 0.07 0.04 0.01 0.00 0.00 0.00 0.00 0.00 0.00 0.00 0.00 0.00 0.00 0.00 0.00 0.00
0.00 0.00 0.00 0.00 0.00 0.00 0.00 0.00 0.00 0.00 0.00 0.00 0.00 0.00 0.00 0.00 0.00 0.00 0.01 0.01 0.03 0.04 0.08 0.12 0.15 0.17 0.17 0.12 0.06 0.02 0.00 0.00 0.00 0.00 0.00 0.00 0.00 0.00 0.00 0.00 0.00 0.00 0.00 0.00
0.00 0.00 0.00 0.00 0.00 0.00 0.00 0.00 0.00 0.00 0.00 0.00 0.00 0.00 0.00 0.00 0.00 0.00 0.00 0.01 0.02 0.05 0.10 0.16 0.21 0.23 0.17 0.09 0.03 0.00 0.00 0.00 0.00 0.00 0.00 0.00 0.00 0.00 0.00 0.00 0.00 0.00 0.00 0.00
0.00 0.00 0.00 0.00 0.00 0.00 0.00 0.00 0.00 0.00 0.00 0.00 0.00 0.00 0.00 0.00 0.01 0.00 0.00 0.00 0.01 0.05 0.13 0.21 0.22 0.18 0.12 0.05 0.01 0.00 0.00 0.00 0.00 0.00 0.00 0.00 0.00 0.00 0.00 0.00 0.00 0.00 0.00 0.00
0.00 0.00 0.00 0.00 0.00 0.00 0.00 0.00 0.00 0.00 0.00 0.00 0.00 0.00 0.00 0.00 0.01 0.01 0.00 0.00 0.02 0.08 0.18 0.21 0.17 0.12 0.06 0.02 0.00 0.00 0.00 0.00 0.00 0.00 0.00 0.00 0.00 0.00 0.00 0.00 0.00 0.00 0.00 0.00
0.00 0.00 0.00 0.00 0.00 0.00 0.00 0.00 0.00 0.00 0.00 0.00 0.00 0.00 0.00 0.01 0.01 0.01 0.01 0.02 0.06 0.13 0.17 0.14 0.10 0.05 0.02 0.01 0.00 0.00 0.00 0.00 0.00 0.00 0.00 0.00 0.00 0.00 0.00 0.00 0.00 0.00 0.00 0.00
0.00 0.00 0.00 0.00 0.00 0.00 0.00 0.00 0.00 0.00 0.00 0.00 0.00 0.00 0.00 0.01 0.02 0.02 0.02 0.05 0.09 0.10 0.08 0.05 0.02 0.01 0.00 0.00 0.00 0.00 0.00 0.00 0.00 0.00 0.00 0.00 0.00 0.00 0.00 0.00 0.00 0.00 0.00 0.00
0.00 0.00 0.00 0.00 0.00 0.00 0.00 0.00 0.00 0.00 0.00 0.00 0.00 0.00 0.01 0.02 0.03 0.03 0.05 0.05 0.04 0.02 0.01 0.00 0.00 0.00 0.00 0.00 0.00 0.00 0.00 0.00 0.00 0.00 0.00 0.00 0.00 0.00 0.00 0.00 0.00 0.00 0.00 0.00
0.00 0.00 0.00 0.00 0.00 0.00 0.00 0.00 0.00 0.00 0.00 0.00 0.01 0.03 0.04 0.03 0.03 0.03 0.03 0.02 0.01 0.00 0.00 0.00 0.00 0.00 0.00 0.00 0.00 0.00 0.00 0.00 0.00 0.00 0.00 0.00 0.00 0.00 0.00 0.00 0.00 0.00 0.00 0.00
0.00 0.00 0.01 0.01 0.01 0.01 0.01 0.01 0.01 0.01 0.02 0.02 0.04 0.06 0.05 0.03 0.02 0.02 0.01 0.00 0.00 0.00 0.00 0.00 0.00 0.00 0.00 0.00 0.00 0.00 0.00 0.00 0.00 0.00 0.00 0.00 0.00 0.00 0.00 0.00 0.00 0.00 0.00 0.00
MSLP
1011.48 1011.91 1012.17 1012.28 1012.28 1012.21 1012.11 1012.03 1011.96 1011.89 1011.77 1011.57 1011.26 1010.85 1010.37 1009.87 1009.44 1009.14 1009.04 1009.18 1009.55 1010.11 1010.79 1011.51 1012.21 1012.81 1013.30 1013.68 1013.98 1014.25 1014.53 1014.87 1015.30 1015.81 1016.39 1017.00 1017.61 1018.16 1018.63 1019.01 1019.27 1019.44 1019.53 1019.56
1011.37 1011.73 1011.94 1012.03 1012.06 1012.06 1012.08 1012.13 1012.18 1012.19 1012.12 1011.91 1011.54 1011.02 1010.41 1009.78 1009.23 1008.85 1008.73 1008.88 1009.31 1009.95 1010.73 1011.55 1012.33 1012.99 1013.51 1013.90 1014.20 1014.46 1014.75 1015.10 1015.55 1016.09 1016.71 1017.35 1017.97 1018.54 1019.01 1019.37 1019.62 1019.77 1019.86 1019.89
1011.09 1011.37 1011.53 1011.62 1011.70 1011.79 1011.94 1012.12 1012.29 1012.40 1012.36 1012.13 1011.68 1011.05 1010.30 1009.53 1008.87 1008.43 1008.29 1008.47 1008.97 1009.72 1010.62 1011.56 1012.43 1013.17 1013.74 1014.16 1014.47 1014.73 1015.02 1015.38 1015.83 1016.39 1017.01 1017.66 1018.28 1018.83 1019.28 1019.61 1019.83 1019.97 1020.05 1020.09
1010.66 1010.86 1010.98 1011.08 1011.20 1011.40 1011.67 1011.99 1012.28 1012.47 1012.47 1012.22 1011.71 1010.97 1010.09 1009.21 1008.45 1007.95 1007.80 1008.03 1008.62 1009.48 1010.51 1011.57 1012.55 1013.38 1014.01 1014.46 1014.79 1015.05 1015.34 1015.69 1016.15 1016.70 1017.31 1017.95 1018.55 1019.06 1019.47 1019.76 1019.96 1020.08 1020.15 1020.20
1010.14 1010.26 1010.34 1010.44 1010.62 1010.90 1011.30 1011.74 1012.15 1012.42 1012.46 1012.20 1011.63 1010.81 1009.83 1008.85 1008.03 1007.50 1007.36 1007.65 1008.32 1009.30 1010.44 1011.63 1012.71 1013.61 1014.30 1014.79 1015.13 1015.40 1015.68 1016.02 1016.47 1017.00 1017.59 1018.20 1018.77 1019.25 1019.61 1019.87 1020.03 1020.12 1020.19 1020.25
1009.61 1009.65 1009.67 1009.77 1009.98 1010.35 1010.84 1011.39 1011.90 1012.24 1012.31 1012.06 1011.46 1010.59 1009.55 1008.52 1007.66 1007.13 1007.02 1007.36 1008.12 1009.19 1010.45 1011.73 1012.91 1013.88 1014.62 1015.14 1015.49 1015.76 1016.02 1016.35 1016.77 1017.28 1017.85 1018.43 1018.95 1019.39 1019.72 1019.93 1020.06 1020.14 1020.19 1020.26
1009.16 1009.10 1009.07 1009.13 1009.36 1009.77 1010.33 1010.95 1011.53 1011.93 1012.04 1011.80 1011.20 1010.31 1009.26 1008.21 1007.36 1006.85 1006.78 1007.19 1008.02 1009.19 1010.53 1011.89 1013.13 1014.16 1014.93 1015.47 1015.83 1016.09 1016.34 1016.64 1017.04 1017.52 1018.06 1018.60 1019.09 1019.49 1019.78 1019.96 1020.06 1020.11 1020.16 1020.22
1008.85 1008.69 1008.59 1008.61 1008.82 1009.23 1009.81 1010.47 1011.08 1011.51 1011.64 1011.41 1010.83 1009.96 1008.92 1007.91 1007.09 1006.63 1006.63 1007.10 1008.01 1009.24 1010.65 1012.06 1013.35 1014.41 1015.21 1015.76 1016.11 1016.37 1016.60 1016.88 1017.25 1017.70 1018.20 1018.71 1019.17 1019.54 1019.79 1019.95 1020.02 1020.05 1020.07 1020.13
1008.74 1008.48 1008.29 1008.24 1008.40 1008.77 1009.32 1009.96 1010.56 1010.98 1011.11 1010.90 1010.34 1009.51 1008.53 1007.58 1006.83 1006.45 1006.52 1007.06 1008.03 1009.31 1010.77 1012.22 1013.54 1014.62 1015.43 1015.98 1016.34 1016.58 1016.79 1017.05 1017.38 1017.80 1018.27 1018.74 1019.17 1019.51 1019.75 1019.87 1019.92 1019.93 1019.93 1019.96
1008.83 1008.48 1008.20 1008.07 1008.14 1008.43 1008.91 1009.47 1010.01 1010.39 1010.50 1010.28 1009.75 1008.97 1008.06 1007.20 1006.55 1006.26 1006.41 1007.03 1008.05 1009.38 1010.86 1012.34 1013.67 1014.76 1015.58 1016.14 1016.49 1016.73 1016.92 1017.15 1017.46 1017.84 1018.27 1018.71 1019.11 1019.43 1019.63 1019.74 1019.77 1019.76 1019.74 1019.74
1009.11 1008.69 1008.33 1008.11 1008.08 1008.27 1008.62 1009.07 1009.49 1009.78 1009.83 1009.60 1009.09 1008.36 1007.54 1006.78 1006.24 1006.06 1006.30 1006.99 1008.07 1009.43 1010.93 1012.41 1013.75 1014.85 1015.67 1016.24 1016.59 1016.82 1017.01 1017.22 1017.49 1017.83 1018.23 1018.63 1019.00 1019.29 1019.48 1019.57 1019.59 1019.55 1019.51 1019.48
1009.52 1009.06 1008.64 1008.35 1008.22 1008.27 1008.49 1008.79 1009.07 1009.24 1009.21 1008.94 1008.43 1007.76 1007.03 1006.39 1005.97 1005.90 1006.24 1007.00 1008.12 1009.51 1011.01 1012.49 1013.82 1014.92 1015.75 1016.32 1016.68 1016.91 1017.08 1017.27 1017.51 1017.82 1018.17 1018.54 1018.87 1019.14 1019.32 1019.40 1019.40 1019.36 1019.30 1019.24
1010.01 1009.55 1009.10 1008.75 1008.54 1008.47 1008.54 1008.68 1008.80 1008.84 1008.71 1008.39 1007.89 1007.27 1006.64 1006.11 1005.83 1005.87 1006.31 1007.13 1008.29 1009.68 1011.18 1012.64 1013.95 1015.04 1015.86 1016.42 1016.78 1017.01 1017.17 1017.34 1017.55 1017.82 1018.14 1018.46 1018.77 1019.02 1019.18 1019.26 1019.26 1019.22 1019.15 1019.08
1010.52 1010.09 1009.66 1009.29 1009.01 1008.85 1008.78 1008.76 1008.74 1008.63 1008.41 1008.04 1007.55 1006.99 1006.46 1006.06 1005.90 1006.06 1006.58 1007.47 1008.64 1010.03 1011.50 1012.92 1014.20 1015.25 1016.05 1016.60 1016.95 1017.16 1017.30 1017.45 1017.63 1017.86 1018.14 1018.43 1018.71 1018.94 1019.10 1019.18 1019.19 1019.15 1019.09 1019.03
1011.01 1010.65 1010.27 1009.91 1009.61 1009.37 1009.19 1009.05 1008.88 1008.67 1008.36 1007.96 1007.49 1007.00 1006.57 1006.30 1006.27 1006.55 1007.15 1008.08 1009.26 1010.62 1012.04 1013.40 1014.61 1015.60 1016.35 1016.86 1017.18 1017.37 1017.49 1017.61 1017.75 1017.95 1018.19 1018.46 1018.71 1018.93 1019.08 1019.17 1019.20 1019.18 1019.14 1019.08
1011.44 1011.18 1010.87 1010.56 1010.26 1009.98 1009.73 1009.49 1009.23 1008.93 1008.58 1008.17 1007.73 1007.33 1007.02 1006.88 1006.98 1007.36 1008.04 1008.99 1010.16 1011.47 1012.80 1014.07 1015.18 1016.09 1016.76 1017.22 1017.49 1017.64 1017.73 1017.81 1017.92 1018.09 1018.30 1018.53 1018.77 1018.98 1019.14 1019.24 1019.29 1019.29 1019.27 1019.23
1011.81 1011.65 1011.43 1011.18 1010.91 1010.63 1010.34 1010.04 1009.72 1009.38 1009.01 1008.62 1008.26 1007.95 1007.77 1007.76 1007.99 1008.47 1009.20 1010.16 1011.30 1012.52 1013.75 1014.90 1015.89 1016.68 1017.25 1017.62 1017.83 1017.94 1017.99 1018.03 1018.12 1018.25 1018.43 1018.65 1018.88 1019.09 1019.26 1019.37 1019.44 1019.46 1019.46 1019.44
1012.11 1012.03 1011.89 1011.71 1011.48 1011.22 1010.93 1010.62 1010.28 1009.93 1009.58 1009.25 1008.97 1008.79 1008.74 1008.87 1009.21 1009.78 1010.55 1011.50 1012.58 1013.70 1014.80 1015.80 1016.65 1017.30 1017.76 1018.04 1018.18 1018.23 1018.23 1018.25 1018.31 1018.43 1018.60 1018.80 1019.02 1019.23 1019.41 1019.54 1019.63 1019.67 1019.67 1019.66
1012.34 1012.31 1012.24 1012.11 1011.93 1011.70 1011.43 1011.13 1010.81 1010.50 1010.20 1009.95 1009.79 1009.73 1009.81 1010.07 1010.52 1011.15 1011.94 1012.87 1013.86 1014.87 1015.83 1016.67 1017.36 1017.87 1018.21 1018.40 1018.47 1018.47 1018.45 1018.45 1018.50 1018.61 1018.77 1018.98 1019.20 1019.42 1019.60 1019.75 1019.84 1019.89 1019.90 1019.88
1012.50 1012.50 1012.46 1012.37 1012.22 1012.03 1011.79 1011.53 1011.26 1011.00 1010.79 1010.64 1010.59 1010.66 1010.87 1011.24 1011.77 1012.45 1013.24 1014.11 1015.02 1015.90 1016.71 1017.40 1017.94 1018.32 1018.56 1018.67 1018.69 1018.66 1018.63 1018.63 1018.68 1018.80 1018.97 1019.18 1019.41 1019.63 1019.83 1019.98 1020.08 1020.13 1020.13 1020.10
1012.62 1012.60 1012.57 1012.49 1012.37 1012.20 1012.01 1011.79 1011.59 1011.41 1011.29 1011.25 1011.31 1011.50 1011.82 1012.28 1012.87 1013.57 1014.34 1015.15 1015.95 1016.71 1017.38 1017.92 1018.34 1018.62 1018.77 1018.83 1018.83 1018.79 1018.77 1018.79 1018.87 1019.00 1019.19 1019.42 1019.66 1019.89 1020.09 1020.25 1020.35 1020.39 1020.38 1020.33
1012.70 1012.65 1012.58 1012.50 1012.39 1012.26 1012.10 1011.95 1011.81 1011.72 1011.70 1011.77 1011.94 1012.23 1012.63 1013.15 1013.77 1014.46 1015.18 1015.91 1016.62 1017.25 1017.80 1018.23 1018.55 1018.75 1018.86 1018.90 1018.90 1018.90 1018.91 1018.97 1019.08 1019.25 1019.47 1019.71 1019.96 1020.20 1020.40 1020.55 1020.65 1020.69 1020.67 1020.59
1012.76 1012.66 1012.56 1012.46 1012.35 1012.24 1012.13 1012.04 1011.98 1011.98 1012.05 1012.21 1012.48 1012.84 1013.30 1013.85 1014.47 1015.12 1015.79 1016.43 1017.03 1017.56 1018.00 1018.35 1018.60 1018.77 1018.87 1018.93 1018.96 1019.00 1019.07 1019.19 1019.34 1019.55 1019.79 1020.04 1020.30 1020.54 1020.74 1020.89 1020.99 1021.02 1020.99 1020.89
1012.83 1012.67 1012.54 1012.42 1012.32 1012.24 1012.17 1012.14 1012.16 1012.24 1012.40 1012.64 1012.97 1013.39 1013.88 1014.43 1015.01 1015.61 1016.20 1016.76 1017.26 1017.70 1018.06 1018.35 1018.57 1018.73 1018.86 1018.95 1019.05 1019.16 1019.29 1019.46 1019.66 1019.89 1020.15 1020.41 1020.66 1020.89 1021.09 1021.23 1021.32 1021.35 1021.31 1021.21
1012.93 1012.73 1012.57 1012.44 1012.36 1012.31 1012.29 1012.33 1012.42 1012.57 1012.80 1013.10 1013.48 1013.92 1014.41 1014.93 1015.47 1016.00 1016.51 1016.97 1017.39 1017.75 1018.06 1018.32 1018.53 1018.72 1018.88 1019.04 1019.20 1019.38 1019.57 1019.79 1020.03 1020.27 1020.53 1020.78 1021.02 1021.23 1021.40 1021.53 1021.61 1021.64 1021.60 1021.51
1013.05 1012.84 1012.67 1012.57 1012.51 1012.49 1012.53 1012.63 1012.78 1013.00 1013.28 1013.63 1014.03 1014.47 1014.94 1015.42 1015.90 1016.35 1016.78 1017.16 1017.51 1017.81 1018.09 1018.33 1018.56 1018.78 1019.00 1019.22 1019.45 1019.68 1019.93 1020.17 1020.42 1020.67 1020.91 1021.13 1021.33 1021.50 1021.65 1021.76 1021.83 1021.85 1021.82 1021.74
Thickness
5738 5735 5738 5746 5748 5750 5747 5745 5750 5760 5767 5758 5762 5765 5770 5774 5778 5783 5785 5784 5779 5775 5768 5757 5750 5747 5743 5739 5735 5731 5727 5721 5717 5712 5706 5698 5691 5685 5680 5674 5668 5665 5661 5657
5724 5729 5746 5750 5745 5738 5735 5732 5739 5752 5757 5748 5752 5756 5766 5766 5771 5778 5779 5777 5775 5769 5756 5748 5744 5742 5739 5733 5729 5723 5718 5714 5710 5705 5698 5691 5683 5675 5669 5662 5657 5653 5649 5646
5725 5740 5747 5736 5728 5724 5728 5729 5736 5740 5749 5745 5739 5742 5757 5763 5766 5769 5772 5775 5774 5766 5752 5743 5738 5736 5733 5726 5722 5717 5711 5705 5700 5693 5687 5679 5672 5665 5658 5651 5645 5641 5637 5634
5730 5741 5730 5724 5724 5725 5722 5737 5734 5732 5730 5735 5736 5724 5757 5759 5756 5760 5764 5768 5769 5764 5751 5740 5733 5728 5725 5719 5714 5707 5701 5694 5688 5684 5680 5674 5666 5657 5648 5641 5635 5629 5624 5620
5727 5735 5727 5718 5725 5727 5726 5738 5731 5728 5725 5723 5728 5717 5742 5756 5747 5759 5764 5765 5765 5760 5748 5736 5729 5722 5717 5711 5705 5697 5691 5684 5678 5673 5667 5661 5655 5647 5639 5631 5623 5617 5612 5608
5734 5738 5733 5730 5734 5732 5731 5724 5720 5720 5720 5705 5721 5718 5728 5755 5750 5762 5767 5761 5757 5753 5740 5728 5719 5712 5704 5698 5692 5686 5679 5671 5665 5661 5656 5651 5644 5636 5628 5620 5615 5610 5605 5598
5717 5723 5729 5732 5722 5720 5717 5704 5696 5696 5700 5707 5732 5720 5729 5754 5759 5760 5759 5752 5746 5740 5727 5714 5705 5698 5692 5685 5678 5671 5665 5658 5652 5648 5643 5638 5632 5625 5618 5613 5607 5600 5595 5588
5708 5709 5725 5726 5719 5715 5713 5708 5692 5689 5701 5720 5728 5712 5734 5751 5750 5749 5750 5746 5736 5727 5716 5704 5696 5688 5681 5674 5667 5660 5654 5648 5642 5636 5631 5626 5622 5618 5611 5601 5597 5589 5582 5575
5711 5711 5731 5731 5729 5722 5712 5712 5719 5704 5701 5697 5712 5727 5734 5740 5740 5742 5742 5736 5726 5717 5705 5694 5686 5678 5671 5663 5656 5651 5645 5638 5632 5625 5619 5615 5609 5603 5597 5589 5582 5577 5567 5561
5708 5700 5719 5727 5724 5722 5723 5722 5713 5696 5680 5680 5700 5712 5724 5733 5738 5740 5735 5726 5716 5706 5694 5685 5677 5668 5661 5654 5648 5642 5636 5629 5622 5616 5610 5604 5598 5591 5584 5579 5569 5562 5554 5547
5696 5689 5704 5709 5706 5713 5713 5709 5704 5705 5705 5691 5688 5708 5742 5737 5737 5736 5734 5725 5711 5697 5686 5677 5669 5660 5652 5645 5639 5633 5626 5619 5612 5606 5599 5592 5586 5578 5572 5565 5557 5550 5543 5536
5681 5684 5689 5704 5716 5714 5714 5712 5707 5692 5694 5699 5692 5706 5738 5731 5730 5729 5729 5721 5706 5691 5680 5671 5661 5650 5641 5635 5629 5622 5616 5609 5602 5595 5587 5580 5573 5565 5559 5553 5545 5538 5532 5526
5666 5666 5667 5682 5691 5698 5699 5702 5703 5701 5694 5692 5689 5706 5720 5720 5721 5720 5720 5709 5692 5680 5670 5660 5649 5639 5631 5624 5617 5611 5605 5598 5591 5584 5576 5569 5561 5554 5547 5539 5533 5527 5521 5516
5651 5657 5659 5665 5676 5678 5682 5688 5691 5690 5690 5693 5695 5702 5711 5708 5708 5709 5706 5694 5679 5669 5659 5649 5637 5627 5618 5611 5604 5599 5591 5583 5577 5571 5564 5557 5549 5542 5534 5528 5522 5517 5512 5506
5644 5646 5653 5659 5666 5668 5669 5673 5678 5680 5684 5683 5690 5693 5698 5695 5695 5696 5691 5678 5665 5656 5647 5636 5625 5614 5604 5597 5590 5583 5575 5568 5562 5558 5552 5544 5537 5530 5523 5518 5512 5507 5502 5496
5631 5632 5637 5641 5654 5656 5656 5664 5667 5669 5673 5675 5679 5682 5685 5683 5684 5682 5675 5663 5651 5643 5633 5622 5609 5598 5589 5581 5573 5565 5558 5553 5550 5545 5539 5533 5525 5520 5514 5508 5502 5495 5489 5482
5621 5618 5619 5624 5641 5635 5638 5655 5656 5659 5665 5661 5660 5664 5664 5666 5665 5664 5661 5652 5641 5631 5620 5607 5593 5582 5572 5564 5557 5551 5547 5544 5539 5534 5528 5522 5516 5510 5504 5497 5489 5481 5474 5467
5601 5604 5609 5614 5615 5604 5633 5635 5637 5638 5635 5632 5634 5638 5641 5645 5647 5647 5646 5639 5629 5618 5605 5590 5577 5564 5554 5549 5545 5542 5540 5535 5529 5523 5517 5512 5506 5499 5490 5482 5474 5467 5460 5452
5592 5592 5597 5601 5602 5610 5621 5615 5615 5615 5619 5611 5613 5616 5620 5622 5622 5620 5619 5618 5610 5598 5583 5569 5558 5547 5540 5538 5538 5535 5530 5524 5519 5513 5506 5500 5493 5484 5476 5468 5460 5452 5445 5438
5581 5584 5586 5588 5582 5586 5599 5599 5603 5600 5603 5598 5601 5601 5603 5602 5604 5599 5592 5587 5577 5567 5558 5548 5540 5534 5531 5530 5528 5524 5519 5514 5508 5501 5493 5485 5477 5470 5462 5454 5446 5440 5433 5427
5574 5575 5576 5575 5573 5586 5583 5588 5594 5587 5587 5584 5587 5589 5589 5586 5580 5575 5568 5559 5552 5545 5538 5532 5527 5525 5523 5519 5516 5512 5508 5503 5495 5487 5479 5471 5463 5456 5449 5441 5434 5427 5423 5417
5567 5568 5569 5570 5566 5569 5572 5575 5572 5572 5572 5573 5575 5576 5573 5567 5561 5554 5545 5538 5533 5527 5523 5520 5519 5516 5511 5507 5505 5502 5497 5489 5482 5474 5466 5459 5452 5446 5439 5431 5424 5418 5412 5407
5553 5558 5564 5564 5564 5562 5562 5560 5561 5563 5564 5565 5567 5566 5559 5552 5544 5537 5529 5523 5519 5516 5514 5514 5512 5508 5503 5500 5498 5494 5485 5478 5471 5463 5456 5449 5442 5435 5428 5423 5417 5410 5402 5397
5545 5542 5544 5547 5555 5555 5553 5553 5554 5556 5557 5558 5557 5554 5547 5539 5530 5524 5519 5514 5513 5512 5512 5510 5508 5504 5500 5495 5490 5483 5475 5468 5461 5454 5447 5441 5435 5429 5419 5413 5407 5399 5392 5387
5538 5535 5535 5536 5541 5542 5544 5541 5541 5543 5545 5545 5543 5538 5532 5526 5519 5515 5513 5513 5512 5510 5508 5506 5503 5499 5494 5488 5480 5473 5465 5459 5453 5446 5440 5435 5429 5421 5411 5403 5394 5388 5381 5373
5533 5530 5527 5530 5530 5525 5526 5525 5526 5528 5529 5528 5525 5521 5518 5517 5514 5513 5512 5510 5507 5504 5502 5499 5496 5492 5486 5479 5471 5463 5457 5452 5447 5441 5434 5429 5421 5411 5403 5395 5387 5376 5371 5366